Location: Kielce
(50.8833°N, 20.6167°E)
Time: 21:07:01
(UTC+02:00)

SR - Pass Details

Date: 29 April 2021
Orbit: 573 x 882 km, 66.7° (Epoch: 09 May)

Event Time Altitude Azimuth Distance (km) Brightness Sun altitude
Rises 14:49:26 0° 319° (NW) 3,468 ? 44.8°
Reaches altitude 10° 14:52:05 10° 314° (NW) 2,503 ? 44.5°
Maximum altitude 14:57:33 45° 244° (WSW) 1,121 ? 43.8°
Drops below altitude 10° 15:02:39 10° 173° (S) 2,331 ? 43.2°
Sets 15:05:03 0° 167° (SSE) 3,206 ? 42.9°
